DAL327 KLAX-KATL

Flight info

Callsign DAL327
Flight time 3h 32m
Altitude 41000
Route DOTSS2 CLEEE PKE HIDAT KA27O NABOB J74 SJN J231 ACH TCC J78 IRW J14 LIT J66 BEATS RUSSA GLAVN2
Aircraft A359/H-SDE2E3GHIJ3J4J5LM1ORWXY/LB1D1

Departure

Time 2026-05-08 00:38
Airport Los Angeles International Airport (KLAX)

Arrival

Time 2026-05-08 04:10
Airport Hartsfield Jackson Atlanta International Airport (KATL)
Time Latitude Longitude Altitude Speed Heading
2026-05-08 00:14 33.94476 -118.40993 102 ft 0 kts 261°
2026-05-08 00:23 33.94476 -118.40989 99 ft 3 kts 261°
2026-05-08 00:24 33.94479 -118.40968 100 ft 3 kts 261°
2026-05-08 00:24 33.94481 -118.40947 99 ft 3 kts 261°
2026-05-08 00:24 33.94483 -118.40933 98 ft 0 kts 261°
2026-05-08 00:28 33.94485 -118.40922 97 ft 2 kts 261°
2026-05-08 00:28 33.94487 -118.40902 98 ft 3 kts 282°
2026-05-08 00:28 33.94485 -118.40891 97 ft 0 kts 302°
2026-05-08 00:29 33.94526 -118.40927 100 ft 5 kts 12°
2026-05-08 00:30 33.94553 -118.40909 102 ft 9 kts 21°
2026-05-08 00:30 33.94640 -118.40904 100 ft 14 kts 356°
2026-05-08 00:30 33.94668 -118.40906 101 ft 0 kts 355°
2026-05-08 00:32 33.94704 -118.40910 100 ft 26 kts 355°
2026-05-08 00:33 33.94756 -118.40883 102 ft 4 kts 80°
2026-05-08 00:33 33.94759 -118.40806 101 ft 14 kts 84°
2026-05-08 00:33 33.94772 -118.40682 99 ft 16 kts 83°
2026-05-08 00:33 33.94786 -118.40543 99 ft 18 kts 83°
2026-05-08 00:34 33.94799 -118.40391 102 ft 19 kts 83°
2026-05-08 00:34 33.94804 -118.40364 101 ft 0 kts 78°
2026-05-08 00:34 33.94810 -118.40342 100 ft 11 kts 65°
2026-05-08 00:34 33.94871 -118.40285 101 ft 11 kts 38°
2026-05-08 00:35 33.94903 -118.40202 103 ft 11 kts 78°
2026-05-08 00:35 33.94915 -118.40101 102 ft 13 kts 85°
2026-05-08 00:35 33.94927 -118.39983 99 ft 15 kts 74°
2026-05-08 00:35 33.94943 -118.39949 102 ft 0 kts 50°
2026-05-08 00:36 33.95016 -118.39915 101 ft 7 kts 351°
2026-05-08 00:36 33.95032 -118.39944 102 ft 13 kts 291°
2026-05-08 00:37 33.95035 -118.40142 106 ft 47 kts 262°
2026-05-08 00:37 33.94955 -118.40820 104 ft 114 kts 262°
2026-05-08 00:37 33.94808 -118.41981 244 ft 153 kts 258°
2026-05-08 00:38 33.94564 -118.44869 1251 ft 185 kts 263°
2026-05-08 00:38 33.94412 -118.46475 1818 ft 205 kts 264°
2026-05-08 00:38 33.94278 -118.48289 2207 ft 229 kts 268°
2026-05-08 00:38 33.94222 -118.50280 2722 ft 246 kts 269°
2026-05-08 00:39 33.94148 -118.52359 3482 ft 249 kts 266°
2026-05-08 00:39 33.93985 -118.54453 4237 ft 253 kts 265°
2026-05-08 00:39 33.93804 -118.56576 4956 ft 257 kts 265°
2026-05-08 00:39 33.93624 -118.58735 5683 ft 261 kts 265°
2026-05-08 00:40 33.93234 -118.60886 6406 ft 267 kts 250°
2026-05-08 00:40 33.92329 -118.62860 7114 ft 273 kts 238°
2026-05-08 00:40 33.91070 -118.64585 7816 ft 283 kts 222°
2026-05-08 00:40 33.89301 -118.65677 8566 ft 293 kts 194°
2026-05-08 00:41 33.87259 -118.65617 9336 ft 301 kts 163°
2026-05-08 00:41 33.85319 -118.64608 10096 ft 306 kts 158°
2026-05-08 00:41 33.83311 -118.63592 10581 ft 323 kts 154°
2026-05-08 00:41 33.81257 -118.62304 10890 ft 343 kts 148°
2026-05-08 00:42 33.79208 -118.60685 11228 ft 360 kts 142°
2026-05-08 00:42 33.77197 -118.58795 11784 ft 369 kts 141°
2026-05-08 00:42 33.75066 -118.57066 12584 ft 371 kts 147°
2026-05-08 00:42 33.72898 -118.55454 13378 ft 371 kts 144°
2026-05-08 00:43 33.70893 -118.53504 14110 ft 371 kts 133°
2026-05-08 00:43 33.69339 -118.51020 14703 ft 373 kts 117°
2026-05-08 00:43 33.68364 -118.48150 15431 ft 369 kts 107°
2026-05-08 00:43 33.67600 -118.45361 16334 ft 327 kts 106°
2026-05-08 00:44 33.66926 -118.42926 16904 ft 290 kts 107°
2026-05-08 00:44 33.66282 -118.40636 17024 ft 299 kts 107°
2026-05-08 00:44 33.65577 -118.38167 17090 ft 324 kts 107°
2026-05-08 00:44 33.64847 -118.35533 17321 ft 341 kts 104°
2026-05-08 00:45 33.64459 -118.32670 17572 ft 355 kts 91°
2026-05-08 00:45 33.64417 -118.29640 17830 ft 371 kts 88°
2026-05-08 00:45 33.64435 -118.26513 18156 ft 384 kts 88°
2026-05-08 00:45 33.64451 -118.23286 18645 ft 390 kts 88°
2026-05-08 00:46 33.64460 -118.20011 19179 ft 394 kts 88°
2026-05-08 00:46 33.64464 -118.16703 19733 ft 398 kts 88°
2026-05-08 00:46 33.64466 -118.13365 20296 ft 402 kts 88°
2026-05-08 00:46 33.64466 -118.09992 20902 ft 406 kts 88°
2026-05-08 00:47 33.64464 -118.06593 21493 ft 409 kts 88°
2026-05-08 00:47 33.64461 -118.03161 22125 ft 412 kts 88°
2026-05-08 00:47 33.64457 -117.99703 22697 ft 416 kts 88°
2026-05-08 00:47 33.64452 -117.96211 23280 ft 421 kts 88°
2026-05-08 00:48 33.64446 -117.92680 23811 ft 425 kts 88°
2026-05-08 00:48 33.64439 -117.89119 24326 ft 428 kts 88°
2026-05-08 00:48 33.64430 -117.85530 24842 ft 431 kts 88°
2026-05-08 00:48 33.64434 -117.81925 25357 ft 434 kts 87°
2026-05-08 00:49 33.64697 -117.78354 25855 ft 434 kts 78°
2026-05-08 00:49 33.65305 -117.74793 26366 ft 436 kts 75°
2026-05-08 00:49 33.65995 -117.71227 26863 ft 439 kts 75°
2026-05-08 00:49 33.66695 -117.67645 27350 ft 442 kts 75°
2026-05-08 00:50 33.67394 -117.64038 27818 ft 445 kts 75°
2026-05-08 00:50 33.68097 -117.60396 28325 ft 448 kts 75°
2026-05-08 00:50 33.68801 -117.56735 28771 ft 452 kts 75°
2026-05-08 00:50 33.69509 -117.53041 29215 ft 455 kts 75°
2026-05-08 00:51 33.70219 -117.49325 29702 ft 458 kts 75°
2026-05-08 00:51 33.70931 -117.45592 30159 ft 460 kts 75°
2026-05-08 00:51 33.71646 -117.41836 30543 ft 463 kts 75°
2026-05-08 00:51 33.72366 -117.38049 30919 ft 465 kts 75°
2026-05-08 00:52 33.73087 -117.34246 31273 ft 468 kts 75°
2026-05-08 00:52 33.73810 -117.30428 31619 ft 470 kts 75°
2026-05-08 00:52 33.74530 -117.26580 31954 ft 473 kts 76°
2026-05-08 00:52 33.75014 -117.22658 32271 ft 477 kts 84°
2026-05-08 00:53 33.75069 -117.18650 32575 ft 481 kts 89°
2026-05-08 00:53 33.74993 -117.14625 32907 ft 484 kts 89°
2026-05-08 00:53 33.74901 -117.10570 33195 ft 486 kts 89°
2026-05-08 00:53 33.74811 -117.06546 33469 ft 488 kts 89°
2026-05-08 00:54 33.74721 -117.02464 33867 ft 487 kts 89°
2026-05-08 00:54 33.74632 -116.98389 34266 ft 486 kts 89°
2026-05-08 00:54 33.74546 -116.94336 34593 ft 485 kts 89°
2026-05-08 00:54 33.74457 -116.90286 34907 ft 485 kts 89°
2026-05-08 00:55 33.74364 -116.86231 35216 ft 485 kts 89°
2026-05-08 00:55 33.74272 -116.82185 35553 ft 484 kts 89°
2026-05-08 00:55 33.74179 -116.78147 35837 ft 483 kts 89°
2026-05-08 00:55 33.74084 -116.74113 36098 ft 483 kts 89°
2026-05-08 00:56 33.73989 -116.70084 36333 ft 483 kts 89°
2026-05-08 00:56 33.73892 -116.66039 36585 ft 483 kts 88°
2026-05-08 00:56 33.73796 -116.62013 36848 ft 482 kts 89°
2026-05-08 00:56 33.73697 -116.57982 37085 ft 483 kts 89°
2026-05-08 00:57 33.73596 -116.53957 37352 ft 483 kts 89°
2026-05-08 00:57 33.73495 -116.49924 37563 ft 483 kts 89°
2026-05-08 00:57 33.73391 -116.45889 37826 ft 483 kts 89°
2026-05-08 00:57 33.73287 -116.41856 38062 ft 482 kts 89°
2026-05-08 00:58 33.73183 -116.37881 38291 ft 482 kts 89°
2026-05-08 00:58 33.73076 -116.33853 38514 ft 482 kts 89°
2026-05-08 00:58 33.72968 -116.29827 38686 ft 482 kts 89°
2026-05-08 00:58 33.72859 -116.25801 38851 ft 483 kts 89°
2026-05-08 00:59 33.72747 -116.21772 39014 ft 482 kts 89°
2026-05-08 00:59 33.72635 -116.17752 39175 ft 482 kts 89°
2026-05-08 00:59 33.72523 -116.13725 39294 ft 483 kts 89°
2026-05-08 00:59 33.72521 -116.09696 39405 ft 481 kts 84°
2026-05-08 01:00 33.72953 -116.05722 39522 ft 478 kts 75°
2026-05-08 01:00 33.73819 -116.01874 39644 ft 477 kts 70°
2026-05-08 01:00 33.74820 -115.98082 39769 ft 477 kts 69°
2026-05-08 01:00 33.75880 -115.94292 39928 ft 477 kts 69°
2026-05-08 01:01 33.76956 -115.90518 40113 ft 476 kts 68°
2026-05-08 01:01 33.78028 -115.86752 40246 ft 476 kts 69°
2026-05-08 01:01 33.79094 -115.82981 40335 ft 477 kts 69°
2026-05-08 01:02 33.81208 -115.75397 40537 ft 478 kts 69°
2026-05-08 01:02 33.82245 -115.71639 40644 ft 479 kts 69°
2026-05-08 01:02 33.83292 -115.67833 40741 ft 480 kts 69°
2026-05-08 01:02 33.84340 -115.64018 40842 ft 480 kts 69°
2026-05-08 01:03 33.85387 -115.60199 40854 ft 481 kts 69°
2026-05-08 01:03 33.87484 -115.52540 40847 ft 482 kts 69°
2026-05-08 01:04 33.89577 -115.44877 40855 ft 482 kts 69°
2026-05-08 01:04 33.91666 -115.37209 40847 ft 482 kts 69°
2026-05-08 01:05 33.93751 -115.29533 40850 ft 481 kts 69°
2026-05-08 01:05 33.95822 -115.21885 40840 ft 479 kts 69°
2026-05-08 01:06 33.97885 -115.14253 40837 ft 479 kts 69°
2026-05-08 01:06 33.99943 -115.06614 40834 ft 479 kts 69°
2026-05-08 01:07 34.01997 -114.98972 40831 ft 479 kts 70°
2026-05-08 01:07 34.04025 -114.91398 40826 ft 476 kts 70°
2026-05-08 01:08 34.06054 -114.83807 40826 ft 475 kts 70°
2026-05-08 01:08 34.08077 -114.76216 40817 ft 475 kts 70°
2026-05-08 01:09 34.10095 -114.68624 40816 ft 475 kts 70°
2026-05-08 01:09 34.12167 -114.61049 40812 ft 475 kts 69°
2026-05-08 01:10 34.14303 -114.53514 40813 ft 475 kts 69°
2026-05-08 01:10 34.16432 -114.45971 40812 ft 475 kts 69°
2026-05-08 01:11 34.18544 -114.38417 40813 ft 475 kts 69°
2026-05-08 01:11 34.20651 -114.30836 40806 ft 476 kts 69°
2026-05-08 01:12 34.22752 -114.23255 40809 ft 476 kts 69°
2026-05-08 01:12 34.24851 -114.15659 40810 ft 476 kts 69°
2026-05-08 01:13 34.26934 -114.08105 40816 ft 476 kts 69°
2026-05-08 01:13 34.29028 -114.00491 40822 ft 477 kts 69°
2026-05-08 01:14 34.31120 -113.92864 40825 ft 477 kts 69°
2026-05-08 01:14 34.33204 -113.85242 40827 ft 477 kts 69°
2026-05-08 01:15 34.35281 -113.77625 40825 ft 476 kts 69°
2026-05-08 01:15 34.37002 -113.71297 40830 ft 475 kts 69°
2026-05-08 01:16 34.39055 -113.63728 40840 ft 472 kts 69°
2026-05-08 01:16 34.41099 -113.56177 40838 ft 472 kts 69°
2026-05-08 01:17 34.43139 -113.48619 40847 ft 472 kts 69°
2026-05-08 01:17 34.45174 -113.41055 40842 ft 472 kts 70°
2026-05-08 01:18 34.47199 -113.33504 40848 ft 471 kts 69°
2026-05-08 01:18 34.49218 -113.25961 40849 ft 470 kts 70°
2026-05-08 01:19 34.51233 -113.18414 40860 ft 470 kts 70°
2026-05-08 01:19 34.53243 -113.10859 40860 ft 470 kts 69°
2026-05-08 01:20 34.55250 -113.03277 40877 ft 475 kts 70°
2026-05-08 01:20 34.56338 -112.95370 40891 ft 482 kts 86°
2026-05-08 01:21 34.56062 -112.87228 40890 ft 484 kts 92°
2026-05-08 01:21 34.55512 -112.79093 40911 ft 484 kts 93°
2026-05-08 01:22 34.54930 -112.70947 40905 ft 485 kts 92°
2026-05-08 01:22 34.54366 -112.62772 40906 ft 487 kts 92°
2026-05-08 01:23 34.53814 -112.54589 40916 ft 487 kts 92°
2026-05-08 01:23 34.53260 -112.46399 41038 ft 487 kts 93°
2026-05-08 01:24 34.52699 -112.38206 41042 ft 487 kts 93°
2026-05-08 01:24 34.52132 -112.30034 41013 ft 487 kts 93°
2026-05-08 01:25 34.51558 -112.21852 40980 ft 487 kts 93°
2026-05-08 01:25 34.50981 -112.13675 40942 ft 487 kts 93°
2026-05-08 01:26 34.50397 -112.05502 40903 ft 485 kts 93°
2026-05-08 01:26 34.49309 -111.97473 40883 ft 487 kts 103°
2026-05-08 01:27 34.47459 -111.89568 40891 ft 488 kts 104°
2026-05-08 01:27 34.45474 -111.81674 40893 ft 491 kts 105°
2026-05-08 01:28 34.43472 -111.73769 40899 ft 490 kts 105°
2026-05-08 01:28 34.41480 -111.65868 40896 ft 490 kts 105°
2026-05-08 01:29 34.39495 -111.57978 40899 ft 490 kts 105°
2026-05-08 01:29 34.38502 -111.54035 41003 ft 490 kts 105°
2026-05-08 01:29 34.37508 -111.50091 41027 ft 490 kts 105°
2026-05-08 01:30 34.35512 -111.42205 41071 ft 490 kts 105°
2026-05-08 01:30 34.33611 -111.34295 41092 ft 489 kts 100°
2026-05-08 01:31 34.33097 -111.26202 41086 ft 484 kts 86°
2026-05-08 01:31 34.33425 -111.18066 41051 ft 484 kts 84°
2026-05-08 01:32 34.33885 -111.09928 41022 ft 485 kts 85°
2026-05-08 01:32 34.34337 -111.01749 40981 ft 487 kts 85°
2026-05-08 01:33 34.34759 -110.93570 40955 ft 487 kts 85°
2026-05-08 01:33 34.35165 -110.85391 40959 ft 487 kts 85°
2026-05-08 01:34 34.35563 -110.77268 40961 ft 487 kts 85°
2026-05-08 01:34 34.35961 -110.69087 40965 ft 486 kts 85°
2026-05-08 01:35 34.36348 -110.60917 40964 ft 486 kts 85°
2026-05-08 01:35 34.36730 -110.52742 40975 ft 486 kts 85°
2026-05-08 01:36 34.37110 -110.44561 41019 ft 486 kts 85°
2026-05-08 01:36 34.37482 -110.36426 41061 ft 486 kts 85°
2026-05-08 01:37 34.37849 -110.28249 41101 ft 486 kts 85°
2026-05-08 01:37 34.38213 -110.20048 41144 ft 486 kts 85°
2026-05-08 01:38 34.38570 -110.11862 41148 ft 487 kts 86°
2026-05-08 01:38 34.38921 -110.03712 41150 ft 488 kts 86°
2026-05-08 01:39 34.39269 -109.95495 41138 ft 489 kts 86°
2026-05-08 01:39 34.39612 -109.87270 41107 ft 489 kts 86°
2026-05-08 01:40 34.39949 -109.79050 41063 ft 489 kts 87°
2026-05-08 01:40 34.40282 -109.70809 41018 ft 491 kts 87°
2026-05-08 01:41 34.40607 -109.62588 40949 ft 492 kts 86°
2026-05-08 01:41 34.40930 -109.54302 40964 ft 492 kts 86°
2026-05-08 01:42 34.41247 -109.46020 40990 ft 492 kts 87°
2026-05-08 01:42 34.41560 -109.37710 41000 ft 494 kts 87°
2026-05-08 01:43 34.41868 -109.29385 40996 ft 495 kts 87°
2026-05-08 01:43 34.42168 -109.21091 40985 ft 494 kts 87°
2026-05-08 01:44 34.42789 -109.12798 40961 ft 494 kts 78°
2026-05-08 01:44 34.44175 -109.04625 40936 ft 496 kts 77°
2026-05-08 01:45 34.45681 -108.96506 40933 ft 497 kts 77°
2026-05-08 01:45 34.47206 -108.88335 40930 ft 497 kts 77°
2026-05-08 01:46 34.48715 -108.80146 40931 ft 497 kts 77°
2026-05-08 01:46 34.50209 -108.71965 40928 ft 498 kts 78°
2026-05-08 01:47 34.51699 -108.63759 40926 ft 498 kts 78°
2026-05-08 01:47 34.53183 -108.55552 40927 ft 498 kts 78°
2026-05-08 01:48 34.55400 -108.43238 40927 ft 498 kts 78°
2026-05-08 01:48 34.56871 -108.35023 40928 ft 499 kts 78°
2026-05-08 01:49 34.58331 -108.26837 40927 ft 500 kts 78°
2026-05-08 01:49 34.59801 -108.18560 40927 ft 500 kts 78°
2026-05-08 01:50 34.61261 -108.10310 40928 ft 500 kts 78°
2026-05-08 01:50 34.62717 -108.02044 40933 ft 500 kts 78°
2026-05-08 01:51 34.64156 -107.93841 40933 ft 500 kts 78°
2026-05-08 01:51 34.65598 -107.85587 40936 ft 500 kts 78°
2026-05-08 01:52 34.67035 -107.77325 40937 ft 500 kts 78°
2026-05-08 01:52 34.68469 -107.69047 40930 ft 501 kts 79°
2026-05-08 01:53 34.69901 -107.60746 40929 ft 503 kts 79°
2026-05-08 01:53 34.71329 -107.52426 40923 ft 503 kts 79°
2026-05-08 01:54 34.72745 -107.44152 40912 ft 503 kts 79°
2026-05-08 01:54 34.74166 -107.35806 40916 ft 504 kts 79°
2026-05-08 01:55 34.75584 -107.27440 40903 ft 506 kts 79°
2026-05-08 01:55 34.76998 -107.19060 40907 ft 506 kts 79°
2026-05-08 01:56 34.78410 -107.10660 40901 ft 506 kts 79°
2026-05-08 01:56 34.79806 -107.02318 40895 ft 506 kts 79°
2026-05-08 01:57 34.81211 -106.93880 40900 ft 509 kts 79°
2026-05-08 01:57 34.82612 -106.85431 41002 ft 510 kts 79°
2026-05-08 01:58 34.84009 -106.76968 40992 ft 510 kts 79°
2026-05-08 01:58 34.85399 -106.68511 40996 ft 510 kts 79°
2026-05-08 01:59 34.86787 -106.60023 41019 ft 512 kts 79°
2026-05-08 01:59 34.88175 -106.51498 41017 ft 513 kts 79°
2026-05-08 02:00 34.89547 -106.43035 41014 ft 513 kts 80°
2026-05-08 02:00 34.90906 -106.34608 41002 ft 513 kts 80°
2026-05-08 02:01 34.92280 -106.26053 40986 ft 516 kts 80°
2026-05-08 02:01 34.93652 -106.17465 40979 ft 517 kts 80°
2026-05-08 02:02 34.95022 -106.08856 40980 ft 517 kts 80°
2026-05-08 02:02 34.96376 -106.00299 40988 ft 517 kts 80°
2026-05-08 02:03 34.97735 -105.91675 40991 ft 519 kts 80°
2026-05-08 02:03 34.99094 -105.83004 40991 ft 521 kts 80°
2026-05-08 02:04 35.00448 -105.74332 40988 ft 521 kts 80°
2026-05-08 02:04 35.01797 -105.65641 40988 ft 521 kts 80°
2026-05-08 02:05 35.02913 -105.58417 40979 ft 522 kts 81°
2026-05-08 02:05 35.04258 -105.49679 40952 ft 525 kts 81°
2026-05-08 02:06 35.05815 -105.39507 40952 ft 525 kts 81°
2026-05-08 02:06 35.06932 -105.32169 40928 ft 525 kts 81°
2026-05-08 02:07 35.08252 -105.23458 40925 ft 526 kts 81°
2026-05-08 02:07 35.09584 -105.14628 40913 ft 528 kts 81°
2026-05-08 02:08 35.10892 -105.05802 40893 ft 528 kts 83°
2026-05-08 02:08 35.11574 -104.96947 40913 ft 527 kts 88°
2026-05-08 02:09 35.12072 -104.88012 40931 ft 527 kts 88°
2026-05-08 02:09 35.12531 -104.79059 40948 ft 529 kts 88°
2026-05-08 02:10 35.12990 -104.70090 40960 ft 529 kts 88°
2026-05-08 02:10 35.13452 -104.61121 40957 ft 529 kts 88°
2026-05-08 02:11 35.13910 -104.52142 40945 ft 529 kts 88°
2026-05-08 02:11 35.14361 -104.43174 40925 ft 529 kts 88°
2026-05-08 02:12 35.14805 -104.34199 40906 ft 529 kts 88°
2026-05-08 02:12 35.15242 -104.25218 40890 ft 529 kts 89°
2026-05-08 02:13 35.15673 -104.16236 40895 ft 530 kts 89°
2026-05-08 02:13 35.16099 -104.07219 40900 ft 532 kts 89°
2026-05-08 02:14 35.16519 -103.98192 40917 ft 532 kts 89°
2026-05-08 02:14 35.16932 -103.89157 40940 ft 532 kts 89°
2026-05-08 02:15 35.17337 -103.80170 40960 ft 534 kts 89°
2026-05-08 02:15 35.17738 -103.71086 40983 ft 536 kts 89°
2026-05-08 02:16 35.18134 -103.61994 40979 ft 536 kts 89°
2026-05-08 02:16 35.18500 -103.52902 40979 ft 536 kts 90°
2026-05-08 02:17 35.18806 -103.43798 40969 ft 537 kts 90°
2026-05-08 02:17 35.19102 -103.34665 40960 ft 538 kts 90°
2026-05-08 02:18 35.19401 -103.25503 40943 ft 539 kts 90°
2026-05-08 02:18 35.19698 -103.16350 40942 ft 539 kts 90°
2026-05-08 02:19 35.19988 -103.07242 40943 ft 540 kts 90°
2026-05-08 02:19 35.20272 -102.98041 40947 ft 542 kts 90°
2026-05-08 02:20 35.20551 -102.88818 40950 ft 542 kts 91°
2026-05-08 02:20 35.20822 -102.79608 40950 ft 542 kts 91°
2026-05-08 02:21 35.21086 -102.70377 40959 ft 544 kts 91°
2026-05-08 02:21 35.21344 -102.61105 40955 ft 546 kts 91°
2026-05-08 02:22 35.21597 -102.51819 40956 ft 546 kts 91°
2026-05-08 02:22 35.21841 -102.42568 40959 ft 546 kts 91°
2026-05-08 02:23 35.22079 -102.33263 40953 ft 549 kts 91°
2026-05-08 02:23 35.22310 -102.23920 40953 ft 551 kts 91°
2026-05-08 02:24 35.22536 -102.14556 40953 ft 551 kts 91°
2026-05-08 02:24 35.22755 -102.05189 40969 ft 550 kts 91°
2026-05-08 02:25 35.22965 -101.95856 40989 ft 552 kts 92°
2026-05-08 02:25 35.23169 -101.86446 41009 ft 553 kts 92°
2026-05-08 02:26 35.23367 -101.77040 41017 ft 553 kts 92°
2026-05-08 02:26 35.23564 -101.67625 41012 ft 554 kts 91°
2026-05-08 02:27 35.23965 -101.58188 41011 ft 557 kts 90°
2026-05-08 02:27 35.24456 -101.48717 40994 ft 558 kts 90°
2026-05-08 02:28 35.24917 -101.39234 40979 ft 558 kts 90°
2026-05-08 02:28 35.25341 -101.29799 40968 ft 558 kts 90°
2026-05-08 02:29 35.25751 -101.20287 40955 ft 561 kts 90°
2026-05-08 02:29 35.26156 -101.10741 40956 ft 562 kts 90°
2026-05-08 02:30 35.26556 -101.01186 40958 ft 562 kts 90°
2026-05-08 02:30 35.26948 -100.91633 40964 ft 562 kts 90°
2026-05-08 02:31 35.27332 -100.82125 40958 ft 562 kts 90°
2026-05-08 02:31 35.27708 -100.72591 40958 ft 562 kts 91°
2026-05-08 02:32 35.28077 -100.63024 40966 ft 564 kts 91°
2026-05-08 02:32 35.28442 -100.53402 40975 ft 565 kts 91°
2026-05-08 02:33 35.28799 -100.43758 40959 ft 568 kts 91°
2026-05-08 02:33 35.29151 -100.34085 40960 ft 568 kts 91°
2026-05-08 02:34 35.29495 -100.24423 40961 ft 568 kts 91°
2026-05-08 02:34 35.29828 -100.14825 40965 ft 569 kts 91°
2026-05-08 02:35 35.30156 -100.05115 40970 ft 570 kts 91°
2026-05-08 02:35 35.30478 -99.95403 40970 ft 570 kts 91°
2026-05-08 02:36 35.30793 -99.85690 40974 ft 570 kts 91°
2026-05-08 02:36 35.31098 -99.75982 40978 ft 571 kts 92°
2026-05-08 02:37 35.31397 -99.66249 40982 ft 572 kts 92°
2026-05-08 02:37 35.31688 -99.56515 40984 ft 572 kts 92°
2026-05-08 02:38 35.31971 -99.46793 40989 ft 572 kts 92°
2026-05-08 02:38 35.32246 -99.37049 41001 ft 574 kts 92°
2026-05-08 02:39 35.32515 -99.27252 41010 ft 575 kts 92°
2026-05-08 02:39 35.32775 -99.17514 41008 ft 576 kts 92°
2026-05-08 02:40 35.33029 -99.07715 41017 ft 576 kts 92°
2026-05-08 02:40 35.33275 -98.97889 40999 ft 579 kts 92°
2026-05-08 02:41 35.33514 -98.88029 40981 ft 580 kts 92°
2026-05-08 02:41 35.33747 -98.78159 40983 ft 580 kts 92°
2026-05-08 02:42 35.33969 -98.68286 41000 ft 580 kts 92°
2026-05-08 02:42 35.34182 -98.58382 40997 ft 583 kts 92°
2026-05-08 02:43 35.34389 -98.48448 40993 ft 584 kts 92°
2026-05-08 02:43 35.34589 -98.38502 40985 ft 584 kts 92°
2026-05-08 02:44 35.34781 -98.28553 41003 ft 585 kts 92°
2026-05-08 02:44 35.34964 -98.18585 41000 ft 586 kts 92°
2026-05-08 02:45 35.35140 -98.08604 41005 ft 586 kts 92°
2026-05-08 02:45 35.35308 -97.98617 41009 ft 586 kts 92°
2026-05-08 02:46 35.35467 -97.88682 40999 ft 587 kts 92°
2026-05-08 02:46 35.35618 -97.78650 41003 ft 588 kts 92°
2026-05-08 02:47 35.35762 -97.68634 41015 ft 588 kts 92°
2026-05-08 02:47 35.35563 -97.58659 41026 ft 583 kts 101°
2026-05-08 02:48 35.34665 -97.48789 41005 ft 583 kts 102°
2026-05-08 02:48 35.33638 -97.38993 41002 ft 583 kts 103°
2026-05-08 02:49 35.32580 -97.29109 41016 ft 583 kts 103°
2026-05-08 02:49 35.31533 -97.19254 41019 ft 583 kts 103°
2026-05-08 02:50 35.30491 -97.09435 41041 ft 584 kts 103°
2026-05-08 02:50 35.29438 -96.99573 41017 ft 583 kts 103°
2026-05-08 02:51 35.28375 -96.89708 41036 ft 584 kts 103°
2026-05-08 02:51 35.27304 -96.79856 41038 ft 585 kts 103°
2026-05-08 02:52 35.26230 -96.70043 41039 ft 586 kts 103°
2026-05-08 02:52 35.25140 -96.60159 41035 ft 586 kts 103°
2026-05-08 02:53 35.24043 -96.50281 41027 ft 586 kts 103°
2026-05-08 02:53 35.23123 -96.42067 41026 ft 587 kts 103°
2026-05-08 02:54 35.22005 -96.32143 41027 ft 588 kts 103°
2026-05-08 02:54 35.20880 -96.22237 41027 ft 588 kts 103°
2026-05-08 02:55 35.19181 -96.07379 41033 ft 588 kts 103°
2026-05-08 02:56 35.18034 -95.97456 41030 ft 590 kts 103°
2026-05-08 02:56 35.16887 -95.87588 41037 ft 591 kts 103°
2026-05-08 02:57 35.15719 -95.77613 41039 ft 591 kts 103°
2026-05-08 02:57 35.14546 -95.67672 41048 ft 591 kts 103°
2026-05-08 02:58 35.13367 -95.57759 41041 ft 593 kts 103°
2026-05-08 02:58 35.12174 -95.47786 40985 ft 593 kts 104°
2026-05-08 02:59 35.10935 -95.37839 41039 ft 591 kts 104°
2026-05-08 02:59 35.09606 -95.27929 41040 ft 591 kts 105°
2026-05-08 03:00 35.08266 -95.18012 41037 ft 592 kts 105°
2026-05-08 03:00 35.06934 -95.08084 41040 ft 593 kts 105°
2026-05-08 03:01 35.05603 -94.98161 41036 ft 593 kts 105°
2026-05-08 03:01 35.04258 -94.88209 41035 ft 594 kts 105°
2026-05-08 03:02 35.02904 -94.78257 41033 ft 594 kts 105°
2026-05-08 03:02 35.01543 -94.68316 41053 ft 594 kts 105°
2026-05-08 03:03 35.00506 -94.58275 41055 ft 598 kts 99°
2026-05-08 03:03 34.99920 -94.48126 41052 ft 601 kts 98°
2026-05-08 03:04 34.99316 -94.37961 41045 ft 601 kts 99°
2026-05-08 03:04 34.98608 -94.27809 41038 ft 600 kts 99°
2026-05-08 03:05 34.97853 -94.17740 41036 ft 600 kts 99°
2026-05-08 03:05 34.97079 -94.07587 41037 ft 601 kts 99°
2026-05-08 03:06 34.96305 -93.97432 41035 ft 602 kts 99°
2026-05-08 03:06 34.95528 -93.87285 41038 ft 601 kts 99°
2026-05-08 03:07 34.94742 -93.77137 41036 ft 601 kts 99°
2026-05-08 03:07 34.93945 -93.66987 41034 ft 602 kts 99°
2026-05-08 03:08 34.93139 -93.56816 41035 ft 602 kts 99°
2026-05-08 03:08 34.92326 -93.46667 41037 ft 602 kts 100°
2026-05-08 03:09 34.91505 -93.36523 41037 ft 601 kts 100°
2026-05-08 03:09 34.90675 -93.26376 41033 ft 601 kts 100°
2026-05-08 03:10 34.89836 -93.16234 41045 ft 601 kts 100°
2026-05-08 03:10 34.88995 -93.06162 41044 ft 601 kts 100°
2026-05-08 03:11 34.88139 -92.96009 41048 ft 602 kts 100°
2026-05-08 03:11 34.87274 -92.85865 41052 ft 602 kts 100°
2026-05-08 03:12 34.86400 -92.75712 41060 ft 602 kts 100°
2026-05-08 03:12 34.85519 -92.65570 41060 ft 602 kts 100°
2026-05-08 03:13 34.84628 -92.55418 41062 ft 603 kts 100°
2026-05-08 03:13 34.83731 -92.45297 41069 ft 603 kts 100°
2026-05-08 03:14 34.82824 -92.35153 41073 ft 603 kts 100°
2026-05-08 03:14 34.81908 -92.25004 41070 ft 603 kts 100°
2026-05-08 03:15 34.81286 -92.14815 41072 ft 607 kts 89°
2026-05-08 03:15 34.82034 -92.04618 41073 ft 608 kts 84°
2026-05-08 03:16 34.83079 -91.94391 41071 ft 609 kts 83°
2026-05-08 03:16 34.84173 -91.84164 41071 ft 609 kts 83°
2026-05-08 03:17 34.85230 -91.73926 41077 ft 610 kts 83°
2026-05-08 03:17 34.86254 -91.63677 41085 ft 610 kts 83°
2026-05-08 03:18 34.87264 -91.53420 41081 ft 610 kts 84°
2026-05-08 03:18 34.88267 -91.43152 41087 ft 611 kts 83°
2026-05-08 03:19 34.89266 -91.32871 41083 ft 611 kts 83°
2026-05-08 03:19 34.90258 -91.22578 41083 ft 612 kts 83°
2026-05-08 03:20 34.91240 -91.12289 41086 ft 612 kts 83°
2026-05-08 03:20 34.92214 -91.01980 41078 ft 613 kts 83°
2026-05-08 03:21 34.93176 -90.91720 41081 ft 613 kts 83°
2026-05-08 03:21 34.94136 -90.81375 41081 ft 613 kts 83°
2026-05-08 03:22 34.95086 -90.71039 41078 ft 613 kts 83°
2026-05-08 03:22 34.96028 -90.60699 41077 ft 613 kts 83°
2026-05-08 03:23 34.96959 -90.50373 41075 ft 613 kts 83°
2026-05-08 03:23 34.97884 -90.40032 41078 ft 613 kts 83°
2026-05-08 03:24 34.98798 -90.29693 41079 ft 612 kts 83°
2026-05-08 03:24 34.99698 -90.19421 41089 ft 613 kts 83°
2026-05-08 03:25 35.00599 -90.09046 41079 ft 615 kts 83°
2026-05-08 03:25 35.01202 -89.98642 41078 ft 614 kts 95°
2026-05-08 03:26 35.00140 -89.88367 41091 ft 609 kts 103°
2026-05-08 03:26 34.98680 -89.78197 41079 ft 608 kts 104°
2026-05-08 03:27 34.97139 -89.68124 41091 ft 608 kts 104°
2026-05-08 03:27 34.95607 -89.57989 41087 ft 608 kts 104°
2026-05-08 03:28 34.94096 -89.47854 41085 ft 608 kts 104°
2026-05-08 03:28 34.92586 -89.37719 41080 ft 608 kts 104°
2026-05-08 03:29 34.91065 -89.27587 41082 ft 608 kts 104°
2026-05-08 03:29 34.89533 -89.17458 41082 ft 608 kts 104°
2026-05-08 03:30 34.87215 -89.02247 41087 ft 609 kts 104°
2026-05-08 03:31 34.84097 -88.81988 41088 ft 609 kts 104°
2026-05-08 03:32 34.81733 -88.66781 41092 ft 609 kts 104°
2026-05-08 03:32 34.80147 -88.56650 41089 ft 609 kts 104°
2026-05-08 03:33 34.78551 -88.46513 41090 ft 609 kts 104°
2026-05-08 03:33 34.76957 -88.36454 41082 ft 610 kts 104°
2026-05-08 03:34 34.75344 -88.26326 41073 ft 610 kts 104°
2026-05-08 03:34 34.73723 -88.16198 41070 ft 610 kts 104°
2026-05-08 03:35 34.72092 -88.06067 40925 ft 610 kts 104°
2026-05-08 03:35 34.71275 -88.01017 40619 ft 609 kts 104°
2026-05-08 03:35 34.70722 -87.97605 40462 ft 610 kts 104°
2026-05-08 03:35 34.69631 -87.90897 40139 ft 611 kts 104°
2026-05-08 03:36 34.68816 -87.85897 39895 ft 611 kts 104°
2026-05-08 03:36 34.67977 -87.80767 39672 ft 612 kts 104°
2026-05-08 03:36 34.67156 -87.75753 39451 ft 613 kts 104°
2026-05-08 03:36 34.66322 -87.70680 39219 ft 613 kts 104°
2026-05-08 03:37 34.65493 -87.65596 38985 ft 615 kts 103°
2026-05-08 03:37 34.64709 -87.60482 38765 ft 616 kts 103°
2026-05-08 03:37 34.63938 -87.55357 38487 ft 617 kts 103°
2026-05-08 03:37 34.63318 -87.51255 38261 ft 617 kts 103°
2026-05-08 03:38 34.62642 -87.46806 38044 ft 616 kts 103°
2026-05-08 03:38 34.61859 -87.41698 37756 ft 615 kts 103°
2026-05-08 03:38 34.61073 -87.36600 37483 ft 614 kts 103°
2026-05-08 03:38 34.60285 -87.31509 37200 ft 613 kts 103°
2026-05-08 03:39 34.59761 -87.28134 37023 ft 613 kts 103°
2026-05-08 03:39 34.58972 -87.23060 36756 ft 612 kts 104°
2026-05-08 03:39 34.58181 -87.17991 36518 ft 611 kts 104°
2026-05-08 03:39 34.57390 -87.12935 36268 ft 610 kts 104°
2026-05-08 03:40 34.56596 -87.07878 36021 ft 609 kts 104°
2026-05-08 03:40 34.55803 -87.02837 35774 ft 608 kts 104°
2026-05-08 03:40 34.55009 -86.97806 35534 ft 607 kts 104°
2026-05-08 03:40 34.54084 -86.92834 35295 ft 603 kts 110°
2026-05-08 03:41 34.52896 -86.87970 35047 ft 600 kts 112°
2026-05-08 03:41 34.51644 -86.83141 34813 ft 599 kts 113°
2026-05-08 03:41 34.50386 -86.78335 34543 ft 597 kts 113°
2026-05-08 03:41 34.49132 -86.73544 34296 ft 596 kts 113°
2026-05-08 03:42 34.47882 -86.68761 34054 ft 596 kts 113°
2026-05-08 03:42 34.46631 -86.63973 33791 ft 596 kts 113°
2026-05-08 03:42 34.45375 -86.59190 33515 ft 597 kts 113°
2026-05-08 03:42 34.44114 -86.54396 33253 ft 598 kts 113°
2026-05-08 03:43 34.42846 -86.49578 33081 ft 599 kts 113°
2026-05-08 03:43 34.40324 -86.40019 33076 ft 597 kts 112°
2026-05-08 03:44 34.37779 -86.30383 33078 ft 596 kts 112°
2026-05-08 03:44 34.35263 -86.20903 33057 ft 595 kts 112°
2026-05-08 03:45 34.32728 -86.11354 33054 ft 596 kts 112°
2026-05-08 03:45 34.30253 -86.01761 33054 ft 597 kts 111°
2026-05-08 03:46 34.27774 -85.92184 33053 ft 596 kts 112°
2026-05-08 03:46 34.25281 -85.82619 33050 ft 596 kts 112°
2026-05-08 03:47 34.22781 -85.73067 33034 ft 596 kts 112°
2026-05-08 03:47 34.21529 -85.68294 32852 ft 592 kts 112°
2026-05-08 03:47 34.20283 -85.63552 31917 ft 594 kts 112°
2026-05-08 03:47 34.19032 -85.58802 31193 ft 592 kts 112°
2026-05-08 03:48 34.17789 -85.54089 30596 ft 587 kts 112°
2026-05-08 03:48 34.16552 -85.49405 29979 ft 583 kts 112°
2026-05-08 03:48 34.15320 -85.44750 29309 ft 579 kts 112°
2026-05-08 03:48 34.14098 -85.40142 28675 ft 573 kts 112°
2026-05-08 03:49 34.12896 -85.35577 28110 ft 568 kts 112°
2026-05-08 03:49 34.11724 -85.31050 27510 ft 562 kts 111°
2026-05-08 03:49 34.10581 -85.26621 26944 ft 557 kts 111°
2026-05-08 03:49 34.09432 -85.22179 26359 ft 553 kts 111°
2026-05-08 03:50 34.08286 -85.17760 25778 ft 548 kts 111°
2026-05-08 03:50 34.07145 -85.13376 25200 ft 544 kts 111°
2026-05-08 03:50 34.05994 -85.09041 24634 ft 538 kts 112°
2026-05-08 03:50 34.04398 -85.05037 24079 ft 523 kts 129°
2026-05-08 03:51 34.02116 -85.01726 23506 ft 504 kts 145°
2026-05-08 03:51 33.99475 -84.99005 22901 ft 493 kts 149°
2026-05-08 03:51 33.96834 -84.96409 22365 ft 488 kts 149°
2026-05-08 03:51 33.94230 -84.93811 21819 ft 484 kts 148°
2026-05-08 03:52 33.91696 -84.91243 21265 ft 480 kts 148°
2026-05-08 03:52 33.89155 -84.88645 20677 ft 474 kts 148°
2026-05-08 03:52 33.86678 -84.86095 20099 ft 461 kts 147°
2026-05-08 03:52 33.84279 -84.83619 19523 ft 448 kts 148°
2026-05-08 03:53 33.81946 -84.81211 18996 ft 437 kts 148°
2026-05-08 03:53 33.79630 -84.78832 18440 ft 441 kts 148°
2026-05-08 03:53 33.77296 -84.76437 17826 ft 440 kts 147°
2026-05-08 03:53 33.74992 -84.74064 17260 ft 434 kts 147°
2026-05-08 03:54 33.72629 -84.71871 16668 ft 424 kts 155°
2026-05-08 03:54 33.70129 -84.70022 16110 ft 419 kts 158°
2026-05-08 03:54 33.67619 -84.68258 15567 ft 417 kts 158°
2026-05-08 03:54 33.65124 -84.66509 15032 ft 414 kts 158°
2026-05-08 03:55 33.62644 -84.64769 14494 ft 412 kts 157°
2026-05-08 03:55 33.60174 -84.63032 13948 ft 410 kts 157°
2026-05-08 03:55 33.57723 -84.61295 13386 ft 409 kts 155°
2026-05-08 03:55 33.55500 -84.59131 12808 ft 419 kts 137°
2026-05-08 03:56 33.53962 -84.56200 12256 ft 426 kts 115°
2026-05-08 03:56 33.53301 -84.52735 11676 ft 428 kts 93°
2026-05-08 03:56 33.53343 -84.49185 11099 ft 424 kts 86°
2026-05-08 03:56 33.53477 -84.45664 10643 ft 416 kts 87°
2026-05-08 03:57 33.53566 -84.42274 10527 ft 398 kts 89°
2026-05-08 03:57 33.53620 -84.39024 10412 ft 381 kts 89°
2026-05-08 03:57 33.53652 -84.35910 10282 ft 367 kts 89°
2026-05-08 03:57 33.53670 -84.32904 10128 ft 354 kts 90°
2026-05-08 03:58 33.53681 -84.29989 9893 ft 345 kts 90°
2026-05-08 03:58 33.53692 -84.27132 9501 ft 340 kts 90°
2026-05-08 03:58 33.53697 -84.24356 9164 ft 335 kts 90°
2026-05-08 03:58 33.53701 -84.21568 8872 ft 333 kts 90°
2026-05-08 03:59 33.53702 -84.18805 8655 ft 330 kts 90°
2026-05-08 03:59 33.53704 -84.16085 8529 ft 320 kts 90°
2026-05-08 03:59 33.53704 -84.13465 8384 ft 309 kts 90°
2026-05-08 03:59 33.53716 -84.10938 8263 ft 297 kts 89°
2026-05-08 04:00 33.54063 -84.08564 8055 ft 281 kts 65°
2026-05-08 04:00 33.55088 -84.06741 7915 ft 248 kts 36°
2026-05-08 04:00 33.56414 -84.05715 7731 ft 209 kts 11°
2026-05-08 04:00 33.57717 -84.05346 7449 ft 180 kts 352°
2026-05-08 04:01 33.58900 -84.05439 7046 ft 164 kts 335°
2026-05-08 04:01 33.59986 -84.05795 6541 ft 166 kts 330°
2026-05-08 04:01 33.61112 -84.06385 6078 ft 184 kts 321°
2026-05-08 04:01 33.62106 -84.07343 5974 ft 182 kts 306°
2026-05-08 04:02 33.62749 -84.08613 5806 ft 175 kts 286°
2026-05-08 04:02 33.63025 -84.10008 5348 ft 175 kts 278°
2026-05-08 04:02 33.63144 -84.11483 5035 ft 181 kts 274°
2026-05-08 04:02 33.63173 -84.13024 4982 ft 182 kts 272°
2026-05-08 04:03 33.63171 -84.14472 4941 ft 164 kts 271°
2026-05-08 04:03 33.63169 -84.16931 4341 ft 142 kts 273°
2026-05-08 04:03 33.63173 -84.18120 4057 ft 140 kts 274°
2026-05-08 04:04 33.63177 -84.19231 3971 ft 126 kts 274°
2026-05-08 04:04 33.63181 -84.20297 4004 ft 132 kts 275°
2026-05-08 04:04 33.63184 -84.21416 3990 ft 135 kts 274°
2026-05-08 04:04 33.63185 -84.22545 3950 ft 135 kts 274°
2026-05-08 04:05 33.63184 -84.23705 3877 ft 151 kts 274°
2026-05-08 04:05 33.63186 -84.25114 3721 ft 180 kts 273°
2026-05-08 04:05 33.63179 -84.26622 3486 ft 176 kts 273°
2026-05-08 04:05 33.63178 -84.28029 3325 ft 162 kts 274°
2026-05-08 04:06 33.63175 -84.29316 3147 ft 147 kts 275°
2026-05-08 04:06 33.63176 -84.30483 2962 ft 135 kts 276°
2026-05-08 04:06 33.63177 -84.31586 2812 ft 133 kts 276°
2026-05-08 04:06 33.63177 -84.32711 2640 ft 134 kts 276°
2026-05-08 04:07 33.63179 -84.33814 2469 ft 134 kts 276°
2026-05-08 04:07 33.63181 -84.34931 2289 ft 133 kts 275°
2026-05-08 04:07 33.63180 -84.36044 2115 ft 133 kts 276°
2026-05-08 04:07 33.63182 -84.37151 1939 ft 133 kts 275°
2026-05-08 04:08 33.63184 -84.38256 1779 ft 132 kts 275°
2026-05-08 04:08 33.63194 -84.39373 1511 ft 134 kts 273°
2026-05-08 04:08 33.63217 -84.40479 1339 ft 132 kts 273°
2026-05-08 04:08 33.63194 -84.41584 1144 ft 132 kts 268°
2026-05-08 04:09 33.63175 -84.42712 1013 ft 136 kts 270°
2026-05-08 04:09 33.63186 -84.43789 1012 ft 121 kts 268°
2026-05-08 04:09 33.63189 -84.44736 1014 ft 106 kts 271°
2026-05-08 04:09 33.63185 -84.44600 1014 ft 387 kts 272°
2026-05-08 04:10 33.63185 -84.43956 1010 ft 0 kts 272°
2026-05-08 04:10 33.63201 -84.44064 1011 ft 22 kts 281°
2026-05-08 04:10 33.63237 -84.44241 1011 ft 18 kts 304°
2026-05-08 04:10 33.63293 -84.44263 1012 ft 6 kts 14°
2026-05-08 04:11 33.63339 -84.44246 1012 ft 8 kts 24°
2026-05-08 04:11 33.63394 -84.44213 1012 ft 10 kts 20°
2026-05-08 04:11 33.63468 -84.44195 1013 ft 12 kts
2026-05-08 04:11 33.63552 -84.44192 1014 ft 13 kts 359°
2026-05-08 04:12 33.63639 -84.44169 1013 ft 13 kts 41°
2026-05-08 04:12 33.63663 -84.44063 1013 ft 14 kts 91°
2026-05-08 04:12 33.63662 -84.43933 1013 ft 17 kts 91°
2026-05-08 04:12 33.63660 -84.43778 1013 ft 20 kts 91°
2026-05-08 04:13 33.63659 -84.43602 1012 ft 22 kts 90°
2026-05-08 04:13 33.63663 -84.43406 1012 ft 24 kts 88°
2026-05-08 04:13 33.63670 -84.43195 1012 ft 26 kts 90°
2026-05-08 04:13 33.63663 -84.42977 1012 ft 27 kts 91°
2026-05-08 04:14 33.63713 -84.42798 1013 ft 20 kts 24°
2026-05-08 04:14 33.63790 -84.42745 1013 ft 5 kts 79°
2026-05-08 04:14 33.63784 -84.42701 1013 ft 7 kts 98°
2026-05-08 04:14 33.63783 -84.42670 1013 ft 0 kts 90°
2026-05-08 04:16 33.63780 -84.42670 1014 ft 0 kts 90°
2026-05-08 04:16 33.63782 -84.42661 1013 ft 0 kts 90°